Home > Weather > Baltimore > Past weeks

Flag for USA Past Weather in Baltimore, Maryland, USA — Yesterday and Last 2 Weeks

Now
86 °F

Broken clouds.


Feels Like: 92 °F
Forecast: 72 / 86 °F
Wind: 8 mph from South

Location: Baltimore-Washington International Airport

Current Time: Jul 30, 2016 at 12:55:56 PM

Latest Report: Jul 30, 2016 at 11:54 AM


Visibility: 10 mi

Pressure: 29.98 "Hg

Humidity: 61%

Dew Point: 71 °F

Location of BaltimoreLocation

Past Weather in Baltimore — Graph

°F

Baltimore Temperature Yesterday

Maximum temperature yesterday: 90 °F (at 2:54 PM)
Minimum temperature yesterday: 72 °F (at 4:54 AM)
Average temperature yesterday: 80 °F

High & Low Weather Summary for the Past Weeks

 TemperatureHumidityPressure
High98 °F (Jul 23, 2:54 PM)96% (Jul 17, 5:54 AM)30.21 "Hg (Jul 17, 5:54 AM)
Low65 °F (Jul 21, 2:54 AM)35% (Jul 19, 5:54 PM)29.78 "Hg (Jul 29, 3:54 AM)
Average81 °F67%29.99 "Hg
* Reported Jul 15 11:54 AM — Jul 30 11:54 AM, Baltimore, Weather by CustomWeather, © 2016

Note: Actual official high and low records may vary slightly from our data, if they occured in-between our weather recording intervals... More about our weather records

Advertising

Baltimore Weather History for the Previous 24 Hours

Scroll right to see more
 ConditionsComfort  
Time TempWeatherWind HumidityBarometerVisibility
11:54 AM
Sat, Jul 30
86 °FBroken clouds.8 mph61%29.98 "Hg10 mi
10:54 AM84 °FBroken clouds.6 mph67%29.98 "Hg10 mi
9:54 AM82 °FBroken clouds.8 mph72%29.97 "Hg8 mi
8:54 AM78 °FFog.No wind87%29.98 "Hg6 mi
7:54 AM75 °FFog.No wind90%29.97 "Hg6 mi
6:54 AM74 °FFog.No wind94%29.96 "Hg5 mi
5:54 AM74 °FFog.No wind91%29.93 "Hg5 mi
4:54 AM73 °FFog.No wind94%29.92 "Hg6 mi
3:54 AM74 °FFog.3 mph94%29.91 "Hg6 mi
2:54 AM74 °FFog.No wind94%29.92 "Hg6 mi
1:54 AM74 °FClear.No wind94%29.93 "Hg7 mi
12:54 AM76 °FPassing clouds.No wind88%29.93 "Hg7 mi
11:54 PM
Fri, Jul 29
75 °FPassing clouds.No wind90%29.93 "Hg7 mi
10:54 PM77 °FClear.No wind88%29.92 "Hg7 mi
9:54 PM78 °FPassing clouds.No wind84%29.90 "Hg8 mi
8:54 PM81 °FScattered clouds.No wind77%29.90 "Hg9 mi
7:54 PM83 °FScattered clouds.7 mph72%29.88 "Hg9 mi
6:54 PM85 °FScattered clouds.7 mph68%29.87 "Hg9 mi
5:54 PM86 °FScattered clouds.6 mph59%29.86 "Hg10 mi
4:54 PM87 °FPartly sunny.7 mph53%29.85 "Hg10 mi
3:54 PM89 °FPartly sunny.6 mph50%29.85 "Hg10 mi
2:54 PM90 °FScattered clouds.5 mph48%29.85 "Hg10 mi
1:54 PM86 °FScattered clouds.6 mph53%29.85 "Hg10 mi
12:54 PM85 °FScattered clouds.3 mph55%29.85 "Hg10 mi
Weather by CustomWeather, © 2016

See weather overviewHow to use our weather pages